Location: Carr Mill
(33.2054°N, 85.9439°W)
Time: 21:25:02
(UTC+00:00)

STARLINK-2627 - Pass Details

Date: 24 June 2021
Orbit: 348 x 351 km, 53.0° (Epoch: 03 August)

Event Time Altitude Azimuth Distance (km) Brightness Sun altitude
Exits shadow 08:04:03 20° 64° (ENE) 888 5.3 -24.6°
Drops below altitude 10° 08:05:08 10° 56° (NE) 1,310 6.5 -24.4°
Sets 08:07:12 0° 50° (NE) 2,155 7.9 -24.2°
